Location: Mississauga
(43.5802°N, 79.6166°W)
Time: 09:31:20
(UTC-04:00)

Cosmos 1437 Rocket - Visible Passes

Search period start: 29 April 2017 00:00
Search period end: 09 May 2017 00:00
Orbit: 507 x 567 km, 81.1° (Epoch: 27 April)

Date Brightness Start Highest point End Pass type
(mag) Time Alt. Az. Time Alt. Az. Time Alt. Az.
29 Apr 5.1 02:14:34 10° NNW 02:15:51 20° NNW 02:15:51 20° NNW visible
30 Apr 5.1 02:06:09 10° NNW 02:07:28 20° NNW 02:07:28 20° NNW visible
01 May 5.1 01:57:46 10° NNW 01:59:05 20° NNW 01:59:05 20° NNW visible
02 May 5.1 01:49:22 10° NNW 01:50:44 21° NNW 01:50:44 21° NNW visible
03 May 5.1 01:40:58 10° NNW 01:42:22 21° NNW 01:42:22 21° NNW visible
04 May 5.0 01:32:33 10° NNW 01:34:02 22° NNW 01:34:02 22° NNW visible
05 May 5.0 01:24:09 10° NNW 01:25:41 23° NNW 01:25:41 23° NNW visible
06 May 4.9 01:15:45 10° NNW 01:17:22 24° NNW 01:17:22 24° NNW visible
07 May 4.8 01:07:20 10° NNW 01:09:03 25° NNW 01:09:03 25° NNW visible
08 May 4.7 00:58:55 10° NNW 01:00:44 27° NNW 01:00:44 27° NNW visible
